SCP
0 0 0 0 0 0 0 0 0 0 0 0 0 0 0 0 0 0 0 0 0 0 0 0 0 0 0 0 0 0 0 0 0 0 0 0 0 0 0 0 0 0 0
0 0 0 0 0 0 0 0 0 0 0 0 0 0 0 0 0 0 0 0 0 0 0 0 0 0 0 0 0 0 0 0 0 0 0 0 0 0 0 0 0 0 0
0 0 0 0 0 0 0 0 0 0 0 0 0 0 0 0 0 0 0 0 0 0 0 0 0 0 0 0 0 0 0 0 0 0 0 0 0 0 0 0 0 0 0
0 0 0 0 0 0 0 0 0 0 0 0 0 0 0 0 0 0 0 0 0 0 0 0 0 0 0 0 0 0 0 0 0 0 0 0 0 0 0 0 0 0 0
0 0 0 0 0 0 0 0 0 0 0 0 0 0 0 0 0 0 0 0 0 0 0 0 0 0 0 0 0 0 0 0 0 0 0 0 0 0 0 0 0 0 0
0 0 0 0 0 0 0 0 0 0 0 0 0 0 0 0 0 0 0 0 0 0 0 0 0 0 0 0 0 0 0 0 0 0 0 0 0 0 0 0 0 0 0
0 0 0 0 0 0 0 0 0 0 0 0 0 0 0 0 0 0 0 0 0 0 0 0 0 0 0 0 0 0 0 0 0 0 0 0 0 0 0 0 0 0 0
0 0 0 0 0 0 0 0 0 0 0 0 0 0 0 0 0 0 1 0 0 0 0 0 0 0 0 0 0 0 0 0 0 0 0 0 0 0 0 0 0 0 0
0 0 0 0 0 0 0 0 0 0 0 0 0 0 0 0 0 0 0 0 0 0 0 0 0 0 0 0 0 0 0 0 0 0 0 0 0 0 0 0 0 0 0
0 0 0 0 0 0 0 0 0 0 0 0 0 0 0 0 0 0 0 0 0 0 0 0 0 0 0 0 0 0 0 0 0 0 0 0 0 0 0 0 0 0 0
0 0 0 0 0 0 0 0 0 0 0 0 0 0 0 0 0 0 0 0 0 0 0 0 0 0 0 0 0 0 0 0 0 0 0 0 0 0 0 0 0 0 0
0 0 0 0 0 0 0 0 0 0 0 0 0 0 0 0 0 0 0 0 0 0 0 0 0 0 0 0 0 0 0 0 0 0 0 0 0 0 0 0 0 0 0
0 0 0 0 0 0 0 0 0 0 0 0 0 0 0 0 0 0 0 0 0 0 0 0 0 0 0 0 0 0 0 0 0 0 0 0 0 0 0 0 0 0 0
0 0 0 0 0 0 0 0 0 0 0 0 0 0 0 0 0 0 0 0 0 0 0 0 0 0 0 0 0 0 0 0 0 0 0 0 0 0 0 0 0 0 0
0 0 0 0 0 0 0 0 0 0 0 0 0 0 0 0 0 0 0 0 0 0 0 0 0 0 0 0 0 0 0 0 0 0 0 0 0 0 0 0 0 0 0
0 0 0 0 0 0 0 0 0 0 0 0 0 0 0 0 0 0 0 0 0 0 0 0 0 0 0 0 0 0 0 0 0 0 0 0 0 0 0 0 0 0 0
0 0 0 0 0 0 0 0 0 0 0 0 0 0 0 0 0 0 0 0 0 0 0 0 0 0 0 0 0 0 0 0 0 0 0 0 0 0 0 0 0 0 0
0 0 0 0 0 0 0 0 0 0 0 0 0 0 0 0 0 0 0 0 0 0 0 0 0 0 0 0 0 0 0 0 0 0 0 0 0 0 0 0 0 0 0
0 0 0 0 0 0 0 0 0 0 0 0 0 0 0 0 0 0 0 0 0 0 0 0 0 0 0 0 0 0 0 0 0 0 0 0 0 0 0 0 0 0 0
0 0 0 0 0 0 0 0 0 0 0 0 0 0 0 0 0 0 0 0 0 0 0 0 0 0 0 0 0 0 0 0 0 0 0 0 0 0 0 0 0 0 0
0 0 0 0 0 0 0 0 0 0 0 0 0 0 0 0 0 0 0 0 0 0 0 0 0 0 0 0 0 0 0 0 0 0 0 0 0 0 0 0 0 0 0
0 0 0 0 0 0 0 0 0 0 0 0 0 0 0 0 0 0 0 0 0 0 0 0 0 0 0 0 0 0 0 0 0 0 0 0 0 0 0 0 0 0 0
0 0 0 0 0 0 0 0 0 0 0 0 0 0 0 0 0 0 0 0 0 0 0 0 0 0 0 0 0 0 0 0 0 0 0 0 0 0 0 0 0 0 0
0 0 0 0 0 0 0 0 0 0 0 0 0 0 0 0 0 0 0 0 0 0 0 0 0 0 0 0 0 0 0 0 0 0 0 0 0 0 0 0 0 0 0
0 0 0 0 0 0 0 0 0 0 0 0 0 0 0 0 0 0 0 0 0 0 0 0 0 0 0 0 0 0 0 0 0 0 0 0 0 0 0 0 0 0 0
0 0 0 0 0 0 0 0 0 0 0 0 0 0 0 0 0 0 0 0 0 0 0 0 0 0 0 0 0 0 0 0 0 0 0 0 0 0 0 0 0 0 0
Wind_Speed
4 5 6 3 3 4 4 4 4 4 3 3 3 3 3 3 3 3 3 2 2 2 1 1 2 2 2 3 3 3 3 3 3 3 3 4 3 4 4 4 3 6 8
5 5 6 3 3 3 3 2 2 2 1 2 2 2 2 2 2 3 3 3 3 2 1 1 1 1 1 2 2 2 2 3 2 2 2 3 3 3 3 2 1 5 6
5 6 6 4 3 3 3 3 2 1 1 2 2 2 3 3 4 4 5 4 4 3 2 2 1 1 0 0 1 1 1 1 2 1 3 3 4 4 2 3 3 5 5
6 6 6 6 5 4 4 3 2 2 2 3 3 4 4 5 5 6 6 6 5 4 4 3 3 3 2 1 1 1 1 1 1 3 4 1 2 5 2 3 3 4 5
6 6 8 6 6 5 4 3 2 2 3 3 4 4 5 6 7 7 7 7 6 5 5 5 4 4 3 2 2 2 2 1 2 7 1 0 0 4 2 2 3 3 4
7 6 8 6 6 5 4 3 2 1 2 3 4 4 5 6 7 7 8 7 7 6 6 6 5 5 5 4 3 3 3 2 7 3 1 2 1 3 2 3 3 3 4
7 6 7 7 6 6 5 4 3 3 3 3 3 3 4 5 6 7 7 7 7 7 7 7 6 6 6 5 5 4 4 4 7 3 3 2 1 1 3 4 4 4 4
6 5 6 7 7 7 6 5 5 4 4 4 3 4 4 4 5 5 5 5 7 7 7 7 7 6 7 6 6 5 5 7 6 5 3 3 2 2 4 4 5 5 5
4 5 4 4 5 5 5 6 6 5 5 5 5 4 4 4 4 4 4 5 6 7 7 6 6 6 8 7 6 6 6 6 8 5 5 2 3 3 5 5 5 5 5
4 4 4 4 5 5 4 5 5 6 6 5 5 5 5 4 4 4 6 4 6 7 7 7 7 8 7 7 7 6 6 8 9 6 4 2 3 4 5 5 6 6 6
3 2 3 4 4 4 4 4 3 2 3 4 2 2 5 5 4 4 2 3 5 6 7 7 7 7 7 7 7 6 7 6 5 6 4 3 2 5 6 6 6 7 7
3 2 2 3 3 4 4 3 3 3 3 4 4 4 4 3 3 5 1 4 5 5 6 7 7 7 6 5 6 7 5 6 6 5 3 4 4 6 6 6 6 7 7
2 2 2 2 3 4 3 4 3 3 3 3 4 4 4 4 3 3 3 2 3 5 4 4 6 5 5 4 4 4 5 5 4 5 3 5 6 7 6 6 7 7 8
1 1 1 2 3 4 5 4 3 3 3 4 4 5 4 3 4 3 3 3 3 2 2 3 3 5 5 6 6 5 5 4 5 4 2 4 6 7 8 7 7 8 8
2 1 0 2 4 4 4 4 4 4 4 4 4 4 5 4 4 4 3 3 4 3 3 3 4 4 5 6 5 5 6 6 6 6 3 5 6 7 8 8 8 9 9
3 1 1 1 3 4 4 4 4 4 3 4 4 5 5 4 4 4 4 3 4 3 3 3 4 4 4 4 6 6 6 6 7 6 5 5 7 7 8 9 9 10 10
3 2 1 1 2 4 5 5 4 4 4 4 4 5 5 5 5 5 5 4 3 4 4 4 4 3 4 4 6 6 6 6 7 7 6 4 5 9 9 10 10 10 11
3 2 1 0 2 3 3 4 4 4 4 3 3 4 6 6 6 5 4 4 4 4 4 3 3 3 4 4 4 5 5 5 7 7 6 6 5 5 8 9 8 9 10
4 3 2 1 1 2 3 3 3 3 3 3 3 4 5 6 7 5 4 4 5 4 3 4 2 3 3 3 4 4 5 5 5 6 7 7 6 6 5 7 8 8 9
4 3 2 2 1 2 2 2 2 2 3 3 3 4 6 5 6 6 4 5 5 3 3 3 3 3 3 3 4 4 4 4 5 5 6 5 6 7 6 6 6 8 9
6 4 3 1 1 1 2 2 3 3 3 3 3 5 5 5 6 5 5 5 4 3 3 4 3 3 3 2 3 3 4 5 4 4 4 5 6 6 6 7 6 5 6
6 4 3 2 1 1 2 2 2 3 3 3 3 4 5 5 5 5 5 5 4 3 3 3 3 3 2 2 3 3 2 3 4 4 4 4 5 5 6 7 7 7 6
6 5 3 2 2 1 1 1 2 2 2 1 3 3 4 5 5 5 6 5 4 4 3 3 3 3 3 2 2 2 2 2 1 3 3 4 4 3 5 5 7 7 8
7 5 4 3 1 1 1 2 3 3 4 4 4 4 4 4 5 5 5 5 4 3 3 3 3 3 3 2 2 2 3 2 2 1 2 2 3 4 4 5 6 6 6
7 6 4 3 2 1 1 1 3 3 3 3 4 4 4 4 4 4 5 5 4 3 4 3 3 3 2 3 2 2 2 2 4 3 2 2 2 3 3 4 4 5 6
7 6 5 4 3 2 3 3 3 4 4 5 4 5 4 3 3 4 4 4 4 3 4 3 3 3 3 3 3 2 2 2 2 3 3 3 3 2 3 3 4 4 4
Wind_Direction
142 138 121 146 135 139 146 153 152 154 164 172 178 181 184 180 179 186 183 180 174 168 152 102 74 78 84 82 74 71 70 68 75 77 80 84 96 97 102 121 165 122 105
124 129 119 129 116 106 107 113 108 132 173 199 212 212 210 211 218 230 221 217 210 205 204 185 129 75 72 73 64 57 58 56 57 78 105 146 128 111 109 123 2 91 115
111 119 126 106 99 95 87 73 56 21 321 286 278 265 244 241 244 249 247 239 233 229 233 238 237 237 219 62 31 25 32 36 38 52 241 206 138 132 130 133 122 119 124
95 103 95 90 83 76 67 55 28 5 337 313 297 287 279 268 260 258 257 251 247 243 244 249 248 245 240 245 309 334 346 345 350 271 238 149 156 118 144 153 151 143 136
96 95 87 81 78 74 73 65 31 358 345 329 314 305 299 290 278 270 265 261 258 255 254 256 259 256 250 244 260 286 295 298 277 258 282 305 186 115 160 167 166 157 150
98 93 87 74 71 70 72 70 38 342 294 301 302 292 290 287 284 277 269 267 265 261 261 258 257 257 255 252 252 262 267 275 258 250 255 243 205 131 187 188 180 172 162
99 91 84 64 54 47 46 39 25 4 328 297 284 288 291 285 281 276 271 268 270 265 262 260 258 255 258 260 257 255 255 264 264 259 246 238 156 139 220 207 195 191 183
90 84 84 82 61 47 38 32 22 5 347 332 315 299 291 280 274 272 270 272 269 266 264 266 265 260 259 259 259 257 257 266 247 249 245 236 101 243 237 217 206 200 195
91 81 65 60 70 73 60 37 24 15 6 356 342 328 310 286 274 266 264 267 262 254 256 258 260 260 261 255 255 256 256 264 271 253 250 228 131 241 239 222 211 207 201
107 89 66 47 33 22 36 53 19 12 8 359 349 344 333 295 263 247 246 241 260 259 252 247 245 241 250 252 250 254 255 251 249 247 246 178 148 241 240 221 211 209 205
123 95 65 41 31 16 359 30 350 355 4 304 293 344 289 286 293 254 284 273 260 259 253 241 241 233 234 238 240 248 250 248 246 254 245 107 213 245 239 222 210 208 206
134 105 63 36 26 10 360 2 341 333 345 326 332 328 311 311 299 294 193 254 261 258 245 232 231 223 224 229 218 225 242 248 252 247 211 142 238 243 234 221 210 206 204
130 107 53 16 17 2 358 352 348 338 337 326 335 321 308 302 287 277 278 237 251 249 245 219 222 220 222 226 239 232 247 259 254 254 201 162 234 240 230 220 209 204 205
163 100 48 353 356 360 359 353 337 344 342 340 339 330 320 312 306 312 291 298 287 274 269 259 245 225 223 226 229 234 237 246 252 256 214 176 236 240 229 217 209 207 205
176 178 30 335 349 355 360 337 341 350 341 342 340 329 330 319 315 313 297 295 286 288 273 258 252 240 230 229 233 236 239 245 251 246 226 187 230 239 228 219 213 209 207
193 189 153 313 351 344 342 342 351 342 338 330 338 335 332 324 318 314 306 306 303 296 295 278 261 251 243 235 236 235 239 244 250 246 245 205 207 224 226 222 217 209 207
192 194 169 303 336 343 344 348 342 338 337 336 342 333 334 331 321 316 313 310 310 300 288 279 272 259 248 239 238 237 235 239 250 249 243 244 213 203 215 222 217 210 205
190 182 148 269 332 352 351 340 340 344 343 341 342 337 337 336 330 324 315 312 312 302 291 279 268 260 252 247 246 243 235 227 241 247 242 233 230 219 198 202 211 209 204
186 178 160 103 342 357 355 339 342 342 342 338 341 346 339 339 333 326 322 317 312 303 296 288 281 275 266 259 256 246 244 234 234 235 238 236 230 226 215 175 194 204 202
181 175 151 143 353 4 349 339 353 344 338 344 348 350 342 335 336 331 321 321 319 307 304 293 289 279 277 269 267 258 243 236 232 229 237 233 235 227 218 201 196 196 200
179 178 164 187 91 5 357 343 343 350 340 346 349 350 335 333 332 329 325 330 322 320 316 310 302 287 281 279 265 255 231 230 234 221 224 228 225 227 218 205 208 200 191
180 179 178 164 109 35 18 349 343 340 331 343 330 337 338 337 333 326 331 326 327 319 313 318 313 308 293 276 277 270 240 202 211 216 217 223 227 213 224 218 208 202 209
184 181 177 167 153 120 36 337 321 316 290 316 347 346 342 338 335 332 329 325 325 320 330 323 316 313 308 293 285 287 278 258 221 197 212 216 225 224 223 227 221 213 208
182 177 181 175 176 151 237 317 334 328 343 351 340 339 331 340 342 335 328 327 326 329 328 318 337 313 298 298 290 276 287 311 287 240 203 206 215 223 231 230 227 225 221
174 175 182 181 188 192 258 294 293 316 335 334 329 334 334 349 344 342 338 333 332 328 329 329 320 307 294 292 298 294 285 271 265 266 252 239 225 221 231 237 233 229 228
172 175 182 191 195 203 239 258 282 310 316 323 330 341 336 343 341 353 337 331 331 332 329 326 316 303 296 293 286 278 279 279 276 268 263 257 259 245 234 227 230 230 233